TimeCST,TemperatureF,Dew PointF,Humidity,Sea Level PressureIn,VisibilityMPH,Wind Direction,Wind SpeedMPH,Gust SpeedMPH,PrecipitationIn,Events,Conditions,WindDirDegrees,DateUTC
12:52 AM,28.0,21.9,78,30.29,10.0,West,3.5,-,N/A,,Clear,270,2013-01-06 06:52:00
1:52 AM,28.9,21.9,75,30.30,10.0,West,4.6,-,N/A,,Clear,270,2013-01-06 07:52:00
2:52 AM,30.0,21.9,72,30.31,10.0,West,4.6,-,N/A,,Clear,280,2013-01-06 08:52:00
3:52 AM,28.9,21.9,75,30.32,10.0,WNW,6.9,-,N/A,,Clear,290,2013-01-06 09:52:00
4:52 AM,30.0,21.9,72,30.33,10.0,WNW,6.9,-,N/A,,Clear,290,2013-01-06 10:52:00
5:52 AM,28.0,21.0,75,30.34,10.0,WNW,5.8,-,N/A,,Clear,290,2013-01-06 11:52:00
6:52 AM,28.0,19.9,72,30.37,10.0,NW,6.9,-,N/A,,Clear,320,2013-01-06 12:52:00
7:52 AM,26.1,19.0,75,30.40,10.0,NW,5.8,-,N/A,,Clear,320,2013-01-06 13:52:00
8:52 AM,30.0,21.9,72,30.42,10.0,NW,5.8,-,N/A,,Clear,320,2013-01-06 14:52:00
9:52 AM,34.0,23.0,64,30.44,10.0,NNW,9.2,-,N/A,,Clear,340,2013-01-06 15:52:00
10:52 AM,37.0,21.9,54,30.44,10.0,NNW,6.9,-,N/A,,Clear,330,2013-01-06 16:52:00
11:52 AM,39.9,21.9,49,30.42,10.0,NNW,6.9,-,N/A,,Clear,340,2013-01-06 17:52:00
12:52 PM,44.1,19.0,37,30.40,10.0,North,10.4,-,N/A,,Clear,360,2013-01-06 18:52:00
1:52 PM,46.0,19.0,34,30.37,10.0,NNW,5.8,-,N/A,,Clear,340,2013-01-06 19:52:00
2:52 PM,46.9,19.0,33,30.36,10.0,Calm,Calm,-,N/A,,Clear,0,2013-01-06 20:52:00
3:52 PM,46.0,19.0,34,30.36,10.0,Calm,Calm,-,N/A,,Clear,0,2013-01-06 21:52:00
4:52 PM,44.1,19.9,38,30.37,10.0,Calm,Calm,-,N/A,,Clear,0,2013-01-06 22:52:00
5:52 PM,39.0,19.0,45,30.37,10.0,SSE,4.6,-,N/A,,Clear,160,2013-01-06 23:52:00
6:52 PM,35.1,19.0,52,30.37,10.0,ESE,5.8,-,N/A,,Clear,120,2013-01-07 00:52:00
7:52 PM,33.1,19.0,56,30.37,10.0,SE,6.9,-,N/A,,Clear,130,2013-01-07 01:52:00
8:52 PM,30.0,19.0,64,30.38,10.0,SSE,3.5,-,N/A,,Clear,150,2013-01-07 02:52:00
9:52 PM,28.0,19.0,69,30.37,10.0,Calm,Calm,-,N/A,,Clear,0,2013-01-07 03:52:00
10:52 PM,30.0,19.9,66,30.37,10.0,South,4.6,-,N/A,,Clear,190,2013-01-07 04:52:00
11:52 PM,26.1,19.0,75,30.37,10.0,SSE,5.8,-,N/A,,Clear,150,2013-01-07 05:52:00